ONEWEB-0053 (45157 NORAD) Tracking and Keplerian Element Data

This shows tracking and keplerian element data for the satellite.

Feedback or suggestion? Click here.




ElementValue
Catalog45157
NameONEWEB-0053
Epoch Orbit926
Epoch Day94.10298279
Epoch Year2020
RAAN145.4353
Inclination87.4289
Eccentricity0.0024662
Argument of Perigee103.9694
Mean Anonmoly256.4267
Mean Motion14.6944367
Decay Rate-0.00349042
L11 45157U 20008AC 20094.10298279 -.00349042 00000-0 -61822-1 0 9999
L22 45157 87.4289 145.4353 0024662 103.9694 256.4267 14.69443670 9262

Live tracking and technical data element details for ONEWEB-0053 (NORAD 45157). ONEWEB-0053 can be tracked NOW for your location showing map with azimuth and elevation plus other details from your city location.

Track the satellite on the map from your city or location and see movement details for azimuth, elevation, latitude, longitude, range, height, and movement on the map or in text.







IsCatalogInMostPopularTable: catalog: 45157, numindb: 10
Update: records affected: 1



GetName: 45157 ONEWEB-0053

Hit Count: updated at: Mon, 06 Apr 2020 12:09:30 GMT